Regional Weather Roundup
Issued by NWS Goodland, KS

Home | Current Version | Previous Version | Graphics & Text | Print | Product List | Glossary On
Versions: 1 2 3 4 5 6 7 8 9 10 11 12 13 14 15 16 17 18 19 20 21 22 23 24 25 26 27 28 29 30 31 32 33 34 35 36 37 38 39 40 41 42 43 44 45 46 47 48 49 50
341
ASUS43 KGLD 291808
RWRGLD

GOODLAND FORECAST AREA HOURLY WEATHER ROUNDUP
NATIONAL WEATHER SERVICE GOODLAND KS
1200 PM MDT THU SEP 29 2016

...OFFICIAL OBSERVATIONS...

CITY           SKY/WX    TMP DP  RH WIND       PRES   REMARKS
GOODLAND KS    FAIR      71  43  36 S17       30.39F HAZE
HILL CITY KS   FAIR      66  47  50 VRB7      30.43F
IMPERIAL NEB   FAIR      69  41  36 S15G22    30.39F
MCCOOK NEB     FAIR      67  44  43 SE10      30.41F
AKRON CO       FAIR      73  40  30 S22G30    30.35F
BURLINGTON CO  FAIR      72  39  30 S20G29    30.39F
LIMON CO       FAIR      72  40  31 S16G26    30.39F
$$

...UNOFFICIAL OBSERVATIONS...

CITY           SKY/WX    TMP DP  RH WIND       PRES   REMARKS
COLBY KS       SUNNY     72  45  37 SE8       30.42F
LENORA KS        N/A     64  32  30 MISG        N/A
NORTON KS      SUNNY     68  41  37 E6        30.41F
SHARON SPRINGS   N/A     71  45  39 S13G20      N/A
KIT CARSON CO    N/A     69  44  39 MISG        N/A
$$




USA.gov is the U.S. government's official web portal to all federal, state and local government web resources and services.